Wind_Speed
11 11 10 9 8 8 7 7 7 7 7 7 7 8 7 8 9 9 10 11 11 12 12 12 12 13 12 11 10 10 8 7 6 5 5 4 5 5 5 4 5 8 10
11 10 10 9 8 8 7 7 6 6 6 6 6 6 6 7 7 8 9 10 11 11 12 12 11 12 12 12 11 10 9 8 6 6 5 5 5 5 6 5 6 8 11
11 11 10 10 9 8 7 6 6 5 4 4 4 5 5 5 5 6 8 9 9 10 11 11 11 11 12 12 11 10 10 9 7 6 6 7 6 5 6 7 9 11 12
12 12 11 10 10 8 7 6 6 5 4 4 3 3 3 3 3 5 6 7 8 9 10 10 11 11 11 12 12 11 10 9 8 7 7 7 5 5 5 7 9 10 11
12 12 12 11 11 10 8 7 6 5 4 3 2 2 1 1 2 3 5 7 7 8 9 10 10 10 10 11 12 12 11 10 10 8 7 6 5 5 5 6 7 8 10
13 13 12 12 12 11 10 9 8 6 4 3 2 2 1 1 1 2 4 5 6 7 8 9 10 10 10 11 11 12 11 10 10 9 8 7 6 6 6 5 6 6 8
13 13 13 13 13 13 11 11 10 8 6 5 4 3 3 2 2 2 3 4 5 6 7 8 9 10 10 11 11 11 11 10 10 10 10 9 8 8 7 7 7 7 7
14 14 14 14 14 14 13 13 12 11 9 7 6 5 4 4 3 2 2 3 4 5 6 7 8 9 10 11 11 11 12 11 11 11 11 10 9 8 8 9 9 8 8
14 14 14 14 15 15 14 14 14 13 11 10 9 7 6 5 4 4 3 3 3 4 5 6 7 8 9 10 11 11 12 12 11 11 12 12 11 10 10 10 9 10 10
13 14 14 15 15 15 15 14 14 13 12 11 10 9 8 7 6 6 5 3 2 3 4 5 6 7 8 9 10 11 11 12 13 12 12 12 12 12 11 12 11 11 11
13 14 14 15 15 16 15 15 15 14 14 12 11 10 9 8 8 7 6 5 3 2 2 3 5 6 7 8 9 10 11 11 12 13 13 14 14 14 13 13 14 14 14
13 14 14 14 15 15 15 15 15 14 14 14 12 11 10 9 8 8 7 6 4 2 1 1 3 5 6 7 8 9 11 12 12 13 14 15 15 15 15 15 16 16 15
11 12 13 14 14 14 15 15 15 14 14 14 13 12 10 9 8 8 7 6 5 4 2 0 2 4 5 7 7 8 10 11 13 14 15 15 16 16 17 17 17 17 17
10 11 12 12 13 13 14 14 14 14 14 13 13 13 11 9 8 7 7 7 6 5 3 2 2 3 4 6 8 9 10 11 13 14 15 16 17 17 18 19 19 19 19
8 9 10 10 11 12 12 13 13 13 13 13 13 13 12 10 9 8 7 7 7 6 5 4 3 2 4 5 7 8 10 11 12 14 15 17 18 19 19 20 20 21 21
7 8 9 9 10 10 11 12 12 12 12 13 13 13 12 11 10 9 9 8 7 6 6 6 5 5 6 8 8 9 10 11 12 14 15 17 18 19 20 21 22 22 22
5 7 8 8 9 10 10 11 11 12 12 12 13 13 13 12 11 10 9 8 8 7 7 7 7 7 7 8 9 10 11 12 13 14 16 17 18 19 20 21 23 24 25
5 6 7 8 8 9 9 10 10 11 11 12 12 13 13 12 11 11 10 9 9 9 9 9 9 9 9 10 10 11 12 13 14 15 16 17 18 19 19 20 21 23 25
5 5 6 7 8 8 9 9 9 10 11 11 12 12 12 12 12 12 12 11 11 12 12 12 12 12 12 12 13 13 14 15 16 16 17 18 18 19 20 21 22 22 24
5 6 6 7 8 9 9 9 10 10 11 12 12 12 13 13 13 13 13 13 14 14 15 15 15 15 15 15 16 16 17 17 18 18 19 19 20 21 22 22 24 24 25
6 7 7 8 9 10 10 10 11 12 12 13 13 13 13 14 14 15 15 15 16 17 17 17 17 17 18 19 19 20 20 21 21 22 22 22 23 24 24 25 26 27 27
8 8 9 10 10 11 12 12 13 13 14 14 14 15 15 16 17 17 17 18 19 20 20 20 20 21 21 21 21 23 24 24 24 25 25 25 26 26 27 28 28 29 30
10 10 10 11 12 12 13 14 15 16 16 16 16 16 17 18 19 20 20 21 22 22 22 23 23 24 24 23 24 25 26 27 27 28 28 28 29 30 31 32 32 33 33
12 12 12 13 13 14 15 16 17 17 18 18 18 19 20 21 22 22 23 24 25 25 26 26 26 26 26 26 27 27 28 29 30 30 31 32 32 32 33 34 35 36 36
14 14 14 15 15 16 17 18 19 19 20 20 21 21 23 24 25 25 26 27 27 28 28 28 28 28 28 29 30 30 31 31 32 33 34 34 34 35 35 36 37 38 39
15 16 17 17 17 18 19 20 21 21 22 23 24 25 26 27 27 28 29 29 30 30 31 30 30 30 31 31 32 33 34 34 34 35 36 36 37 37 37 38 39 40 41
Wind_Direction
341 338 336 332 329 324 320 312 299 294 290 284 280 274 267 263 257 247 239 237 235 231 224 221 218 217 216 216 217 219 224 229 229 226 222 214 193 168 155 130 134 136 151
350 348 347 343 340 336 333 327 314 303 298 292 286 280 271 269 255 240 234 233 231 225 221 220 217 214 213 212 212 215 221 226 227 221 217 215 200 181 161 148 136 139 145
2 359 357 354 352 347 344 340 332 322 312 307 298 286 275 272 249 235 227 226 223 219 217 217 215 212 212 212 211 214 217 220 221 218 215 213 207 178 159 144 141 143 147
9 7 5 3 1 0 356 353 347 336 328 324 319 304 283 268 243 231 220 217 216 214 214 212 212 213 214 214 212 214 216 221 223 219 212 204 193 175 164 152 150 151 152
14 13 14 14 15 15 10 5 1 348 341 342 342 338 306 249 224 222 212 210 210 213 214 211 211 211 214 214 211 214 217 222 221 214 209 205 197 179 172 156 155 158 157
23 23 24 25 26 24 22 18 17 14 16 22 28 37 63 90 126 179 191 201 203 205 205 206 208 210 212 209 210 214 217 219 214 211 211 210 207 197 191 189 178 172 167
30 30 30 32 32 32 30 29 31 35 41 47 55 63 72 81 92 128 161 184 199 204 201 200 204 209 213 210 212 213 215 217 215 215 216 215 216 211 203 202 200 194 187
35 36 37 37 37 38 38 39 41 45 48 52 56 62 70 76 82 96 139 170 192 201 203 199 200 207 212 213 214 215 218 219 218 219 221 222 222 223 218 212 209 204 203
41 41 41 43 43 43 43 44 46 50 51 53 56 61 67 71 73 78 102 141 168 187 196 199 203 210 215 217 218 218 221 221 222 222 226 228 230 232 230 224 220 214 212
44 44 44 45 46 46 46 46 47 50 50 53 56 59 65 73 72 75 87 103 130 166 182 199 209 216 217 220 221 220 224 226 227 228 231 232 235 239 240 237 234 227 223
45 45 45 46 45 45 46 46 46 49 49 50 52 55 63 66 65 71 74 75 85 129 170 203 209 215 219 223 226 227 229 232 233 234 235 236 239 242 245 244 240 235 231
46 45 45 45 44 44 45 45 45 47 46 48 50 52 58 60 62 63 63 60 62 76 140 202 212 221 222 225 232 233 233 237 238 238 239 240 242 243 245 245 242 238 236
45 44 44 45 44 44 44 44 44 44 46 48 48 49 51 52 52 51 49 47 47 50 47 252 242 241 235 236 240 242 242 245 246 246 247 248 248 248 247 246 246 245 244
40 40 41 42 41 41 42 42 42 43 44 45 44 43 42 42 42 42 39 37 39 37 27 4 280 258 251 250 252 252 253 254 252 253 254 254 253 252 251 250 250 250 249
34 35 36 36 36 37 37 39 40 41 42 42 40 37 36 34 33 33 30 29 30 27 16 1 346 303 274 272 269 264 261 259 259 258 258 257 256 255 255 254 254 253 252
28 29 30 30 31 31 32 34 34 36 36 35 32 30 29 29 27 24 21 18 14 10 6 357 344 325 298 285 281 277 273 269 267 266 263 262 260 259 258 258 257 257 255
13 19 22 23 24 26 26 29 29 30 29 26 23 21 22 23 21 17 12 8 3 355 348 343 334 325 313 299 287 285 284 279 276 273 271 268 265 262 262 260 259 260 259
357 6 12 15 15 15 16 19 23 22 20 18 15 14 14 14 13 8 4 358 353 346 339 331 325 320 312 306 297 292 288 285 282 279 276 273 269 266 264 262 262 262 262
338 347 355 360 0 1 3 5 5 5 4 3 2 2 1 1 360 357 351 346 341 337 332 325 318 314 308 303 296 291 288 287 285 280 278 276 272 269 266 264 263 264 264
323 331 335 339 342 344 347 349 348 346 346 345 346 347 348 349 348 344 341 337 332 326 321 317 312 308 304 301 296 291 288 286 285 281 278 276 274 271 268 267 265 264 264
310 318 322 323 327 330 333 335 335 334 334 333 333 333 334 335 336 334 333 331 328 323 318 313 310 307 302 299 295 291 289 287 285 282 278 276 274 272 270 269 267 266 265
298 306 313 317 320 322 324 326 326 325 325 325 326 326 324 325 326 324 324 324 323 320 316 312 309 306 301 297 296 293 290 288 286 284 281 278 275 274 272 271 270 268 267
289 296 304 310 313 316 319 321 322 322 322 320 319 319 318 319 319 318 317 317 318 317 314 311 308 305 302 298 297 296 292 288 286 284 282 279 276 275 274 273 272 270 269
286 291 297 302 307 310 313 315 317 318 318 317 316 316 315 316 315 314 314 314 315 315 313 310 307 304 301 299 299 298 295 290 287 285 283 281 278 277 276 275 274 273 272
284 289 294 298 302 305 307 310 311 314 314 313 313 313 312 311 311 311 310 311 311 311 312 309 306 304 302 302 301 299 297 294 290 287 285 282 279 277 277 277 276 275 274
282 287 291 294 298 300 303 306 308 310 311 311 310 310 310 310 309 308 308 308 309 310 310 308 305 304 303 303 302 299 298 296 292 288 286 284 281 279 279 278 276 275 274
Height
5866 5865 5863 5861 5860 5859 5858 5857 5856 5856 5855 5855 5855 5855 5855 5856 5857 5858 5859 5860 5862 5864 5866 5868 5871 5873 5876 5878 5880 5882 5883 5884 5885 5886 5887 5888 5888 5888 5888 5888 5887 5886 5888
5865 5863 5862 5860 5858 5857 5856 5855 5854 5853 5853 5853 5853 5853 5853 5853 5854 5855 5857 5858 5860 5862 5864 5867 5869 5872 5874 5877 5879 5881 5883 5884 5885 5886 5887 5888 5889 5889 5889 5889 5889 5890 5891
5865 5863 5861 5859 5857 5856 5854 5853 5852 5852 5851 5851 5851 5851 5851 5852 5852 5853 5855 5857 5858 5860 5863 5865 5868 5870 5873 5876 5878 5880 5882 5884 5885 5886 5887 5888 5889 5889 5890 5891 5891 5892 5894
5865 5863 5861 5859 5857 5855 5853 5852 5851 5850 5850 5850 5849 5849 5850 5850 5851 5852 5854 5856 5857 5860 5862 5864 5867 5869 5872 5875 5877 5880 5881 5883 5885 5886 5888 5889 5889 5891 5892 5893 5894 5895 5896
5865 5863 5861 5859 5856 5855 5853 5852 5850 5849 5849 5849 5848 5849 5849 5849 5850 5851 5853 5855 5857 5859 5861 5863 5866 5868 5871 5873 5876 5879 5881 5883 5885 5886 5888 5889 5890 5892 5893 5895 5896 5898 5899
5866 5863 5861 5859 5857 5855 5853 5852 5850 5849 5848 5848 5848 5848 5849 5849 5850 5851 5852 5854 5856 5858 5860 5862 5865 5867 5870 5872 5875 5877 5880 5882 5884 5886 5888 5890 5891 5893 5894 5896 5898 5899 5901
5867 5865 5862 5860 5858 5856 5854 5853 5851 5850 5849 5849 5849 5849 5849 5850 5851 5851 5852 5854 5856 5857 5860 5862 5864 5867 5869 5871 5874 5876 5879 5881 5883 5885 5887 5889 5891 5893 5894 5896 5898 5899 5901
5868 5866 5864 5862 5860 5858 5856 5854 5853 5852 5851 5850 5850 5850 5850 5851 5851 5852 5853 5854 5856 5857 5859 5862 5864 5866 5868 5871 5873 5875 5878 5880 5882 5885 5887 5889 5891 5892 5894 5896 5897 5899 5901
5870 5868 5866 5864 5862 5860 5859 5857 5855 5854 5853 5852 5852 5852 5852 5852 5852 5853 5853 5855 5856 5858 5859 5861 5863 5865 5868 5870 5872 5874 5877 5879 5881 5883 5886 5888 5890 5892 5893 5895 5897 5898 5900
5872 5870 5868 5867 5865 5863 5861 5860 5858 5857 5856 5855 5854 5853 5854 5853 5854 5854 5855 5856 5857 5858 5859 5861 5863 5865 5867 5869 5871 5873 5875 5877 5880 5882 5884 5886 5888 5890 5892 5894 5895 5897 5899
5874 5873 5871 5869 5868 5866 5864 5862 5861 5859 5858 5857 5856 5856 5855 5856 5856 5856 5856 5857 5858 5858 5859 5861 5862 5864 5866 5868 5870 5872 5874 5876 5878 5880 5882 5884 5886 5888 5890 5892 5893 5895 5897
5877 5875 5873 5872 5870 5869 5867 5865 5864 5862 5861 5860 5859 5858 5858 5858 5858 5858 5858 5858 5858 5859 5860 5861 5862 5863 5865 5867 5869 5870 5872 5874 5876 5878 5880 5882 5884 5886 5887 5889 5891 5892 5894
5879 5877 5876 5874 5873 5871 5870 5868 5867 5865 5864 5862 5861 5861 5860 5860 5859 5859 5859 5859 5859 5860 5860 5861 5862 5863 5864 5866 5867 5869 5870 5872 5874 5876 5877 5879 5881 5883 5884 5886 5888 5889 5891
5880 5879 5878 5876 5875 5874 5872 5871 5869 5868 5866 5865 5864 5863 5862 5862 5861 5861 5861 5860 5860 5860 5860 5861 5861 5862 5863 5865 5866 5867 5869 5870 5871 5873 5874 5876 5878 5879 5881 5882 5884 5886 5887
5882 5880 5879 5878 5877 5876 5874 5873 5871 5870 5869 5867 5866 5865 5864 5863 5863 5862 5862 5861 5862 5861 5861 5861 5861 5862 5863 5863 5864 5865 5866 5867 5868 5870 5871 5872 5874 5875 5877 5878 5880 5881 5883
5883 5882 5880 5879 5878 5877 5876 5874 5873 5872 5871 5869 5868 5867 5866 5865 5864 5864 5863 5862 5862 5862 5862 5861 5861 5861 5862 5862 5863 5863 5864 5864 5865 5866 5867 5868 5869 5871 5872 5874 5875 5876 5878
5883 5882 5881 5880 5879 5878 5877 5875 5874 5873 5872 5871 5870 5868 5867 5866 5865 5864 5864 5863 5862 5862 5861 5861 5861 5860 5860 5860 5861 5861 5861 5862 5862 5863 5864 5864 5865 5866 5867 5868 5870 5871 5872
5883 5882 5881 5881 5880 5879 5877 5876 5875 5874 5873 5871 5870 5869 5868 5867 5866 5865 5864 5863 5862 5861 5860 5860 5859 5859 5858 5858 5858 5858 5858 5859 5859 5859 5859 5860 5860 5861 5862 5863 5864 5865 5866
5882 5882 5881 5880 5880 5879 5878 5876 5875 5874 5873 5872 5870 5869 5868 5867 5866 5864 5863 5862 5861 5860 5859 5858 5857 5856 5856 5855 5855 5855 5855 5855 5855 5855 5855 5855 5855 5856 5856 5857 5858 5858 5860
5882 5881 5880 5880 5879 5878 5877 5876 5875 5873 5872 5871 5869 5868 5867 5866 5865 5863 5862 5860 5859 5857 5856 5854 5853 5852 5852 5851 5851 5850 5850 5850 5850 5849 5849 5849 5849 5850 5850 5850 5851 5852 5853
5880 5880 5879 5878 5878 5877 5875 5874 5873 5871 5870 5869 5868 5866 5865 5864 5863 5861 5860 5858 5856 5854 5851 5850 5849 5848 5847 5846 5845 5844 5844 5844 5844 5843 5843 5843 5843 5843 5843 5843 5843 5844 5845
5879 5878 5877 5877 5876 5874 5873 5872 5870 5869 5867 5866 5865 5864 5862 5861 5860 5858 5856 5854 5852 5849 5847 5845 5843 5842 5840 5839 5838 5837 5837 5836 5836 5836 5835 5835 5835 5835 5834 5835 5835 5835 5835
5876 5876 5875 5874 5873 5872 5871 5869 5867 5865 5864 5862 5861 5860 5859 5858 5856 5854 5852 5850 5847 5844 5841 5839 5837 5835 5833 5832 5831 5830 5828 5828 5827 5826 5826 5826 5825 5825 5825 5825 5825 5825 5825
5873 5873 5872 5871 5870 5869 5868 5866 5864 5862 5860 5859 5857 5856 5855 5853 5851 5849 5847 5845 5842 5839 5835 5832 5830 5827 5826 5824 5823 5821 5820 5819 5818 5816 5815 5815 5815 5815 5814 5814 5813 5813 5813
5870 5870 5869 5868 5867 5865 5864 5862 5861 5859 5857 5855 5853 5852 5850 5848 5846 5844 5842 5839 5836 5833 5829 5825 5822 5819 5818 5816 5814 5812 5811 5809 5808 5807 5805 5804 5804 5804 5804 5803 5802 5801 5800
5866 5865 5865 5864 5863 5861 5860 5858 5856 5855 5853 5851 5849 5847 5844 5842 5840 5837 5835 5832 5830 5826 5823 5819 5816 5813 5810 5808 5805 5803 5801 5799 5797 5796 5794 5792 5792 5791 5791 5791 5790 5788 5787